FW9784 Weather Reports


Display with metric or nautical units.
time (UTC)temp
F
wind
direction
speed
MPH
gust
MPH
rain 1hr
in
rain 24hr
in
rain mn
in
humidity
%
barometer
mb
20260505230404 64 200 4.0 8.0 0.00 0.00 0.00 69 1014.0
20260505225902 64 249 3.0 11.0 0.00 0.00 0.00 68 1013.9
20260505225402 65 232 4.0 11.0 0.00 0.00 0.00 68 1014.0
20260505224902 64 269 5.0 12.0 0.00 0.00 0.00 68 1014.0
20260505224403 65 199 4.0 12.0 0.00 0.00 0.00 67 1014.0
20260505223902 65 0 5.0 12.0 0.00 0.00 0.00 68 1013.9
20260505223404 65 0 5.0 12.0 0.00 0.00 0.00 67 1014.1
20260505222905 65 229 5.0 14.0 0.00 0.00 0.00 67 1014.1
20260505222402 65 211 5.0 14.0 0.00 0.00 0.00 66 1014.1
20260505221902 65 235 5.0 11.0 0.00 0.00 0.00 66 1014.1
20260505221402 66 286 5.0 12.0 0.00 0.00 0.00 65 1014.2
20260505220902 66 240 5.0 12.0 0.00 0.00 0.00 66 1014.1
20260505220401 66 242 5.0 11.0 0.00 0.00 0.00 66 1014.1
20260505215904 65 219 5.0 11.0 0.00 0.00 0.00 66 1014.2
20260505215401 65 226 4.0 11.0 0.00 0.00 0.00 68 1014.3
20260505214902 65 218 5.0 12.0 0.00 0.00 0.00 67 1014.2
20260505214402 65 0 6.0 12.0 0.00 0.00 0.00 65 1014.3
20260505213900 66 193 6.0 14.0 0.00 0.00 0.00 65 1014.3
20260505213400 65 189 6.0 14.0 0.00 0.00 0.00 66 1014.3
20260505213209 66 253 6.0 12.0 0.00 0.00 0.00 67 1014.4
20260505212402 65 284 7.0 14.0 0.00 0.00 0.00 67 1014.4
20260505211901 65 294 6.0 14.0 0.00 0.00 0.00 66 1014.4
20260505211354 65 234 6.0 13.0 0.00 0.00 0.00 65 1014.5
20260505210852 65 0 6.0 11.0 0.00 0.00 0.00 67 1014.4
20260505210711 65 240 5.0 11.0 0.00 0.00 0.00 66 1014.4
20260505205842 65 247 5.0 10.0 0.00 0.00 0.00 67 1014.6
20260505205342 64 285 6.0 13.0 0.00 0.00 0.00 68 1014.6
20260505205136 64 182 6.0 13.0 0.00 0.00 0.00 69 1014.6
20260505204343 64 0 6.0 14.0 0.00 0.00 0.00 70 1014.6
20260505203842 64 237 6.0 14.0 0.00 0.00 0.00 71 1014.5
20260505203342 65 284 6.0 14.0 0.00 0.00 0.00 70 1014.4
20260505202842 64 0 6.0 14.0 0.00 0.00 0.00 69 1014.3
20260505202341 64 248 5.0 11.0 0.00 0.00 0.00 71 1014.4
20260505201842 64 0 5.0 11.0 0.00 0.00 0.00 71 1014.3
20260505201341 63 204 7.0 14.0 0.00 0.00 0.00 70 1014.4
20260505200840 64 0 6.0 14.0 0.00 0.00 0.00 69 1014.4
20260505200658 64 254 6.0 14.0 0.00 0.00 0.00 69 1014.4
20260505195838 65 0 6.0 14.0 0.00 0.00 0.00 68 1014.5
20260505195338 65 188 6.0 13.0 0.00 0.00 0.00 69 1014.5
20260505194837 64 254 6.0 13.0 0.00 0.00 0.00 68 1014.6
20260505194338 65 194 5.0 12.0 0.00 0.00 0.00 67 1014.6
20260505193838 65 242 5.0 11.0 0.00 0.00 0.00 67 1014.6
20260505193338 65 276 6.0 13.0 0.00 0.00 0.00 66 1014.7
20260505193026 64 207 5.0 11.0 0.00 0.00 0.00 70 1014.6
20260505192950 65 0 5.0 13.0 0.00 0.00 0.00 67 1014.7
20260505191838 64 263 6.0 13.0 0.00 0.00 0.00 67 1014.7
20260505191342 64 286 5.0 13.0 0.00 0.00 0.00 70 1014.8
20260505190831 65 0 5.0 12.0 0.00 0.00 0.00 68 1014.8
20260505190329 65 212 5.0 10.0 0.00 0.00 0.00 69 1014.8
20260505185835 65 0 5.0 10.0 0.00 0.00 0.00 70 1014.8
20260505185331 65 257 5.0 10.0 0.00 0.00 0.00 69 1014.8
20260505184831 64 261 5.0 11.0 0.00 0.00 0.00 72 1014.7
20260505184329 64 209 5.0 11.0 0.00 0.00 0.00 71 1014.8
20260505183830 64 201 5.0 11.0 0.00 0.00 0.00 71 1014.8
20260505183330 64 229 5.0 11.0 0.00 0.00 0.00 71 1014.8
20260505182830 64 259 6.0 14.0 0.00 0.00 0.00 71 1014.8
20260505182330 64 248 6.0 14.0 0.00 0.00 0.00 71 1014.8
20260505182159 64 284 5.0 11.0 0.00 0.00 0.00 70 1014.7
20260505181618 64 205 5.0 11.0 0.00 0.00 0.00 71 1014.7
20260505180830 63 236 5.0 13.0 0.00 0.00 0.00 72 1014.7
20260505180330 63 257 4.0 13.0 0.00 0.00 0.00 72 1014.6
20260505175830 63 207 5.0 11.0 0.00 0.00 0.00 70 1014.6
20260505175331 64 211 5.0 10.0 0.00 0.00 0.00 69 1014.6
20260505174829 64 202 5.0 10.0 0.00 0.00 0.00 70 1014.5
20260505174329 64 221 5.0 10.0 0.00 0.00 0.00 72 1014.4
20260505173830 64 0 5.0 11.0 0.00 0.00 0.00 72 1014.5
20260505173330 64 311 5.0 11.0 0.00 0.00 0.00 72 1014.4
20260505172831 64 0 5.0 10.0 0.00 0.00 0.00 73 1014.2
20260505172331 64 254 4.0 9.0 0.00 0.00 0.00 73 1014.3
20260505171835 64 0 4.0 9.0 0.00 0.00 0.00 72 1014.4
20260505171329 64 207 4.0 10.0 0.00 0.00 0.00 73 1014.2
20260505170829 64 248 4.0 10.0 0.00 0.00 0.00 72 1014.2
20260505170330 64 241 4.0 9.0 0.00 0.00 0.00 73 1014.1
20260505165829 63 221 4.0 9.0 0.00 0.00 0.00 73 1014.1
20260505165332 63 217 4.0 9.0 0.00 0.00 0.00 74 1014.0
20260505165235 64 270 3.0 11.0 0.00 0.00 0.00 74 1014.0
20260505164330 63 234 3.0 11.0 0.00 0.00 0.00 75 1014.0
20260505163840 63 271 4.0 9.0 0.00 0.00 0.00 73 1013.9
20260505163329 63 206 4.0 9.0 0.00 0.00 0.00 74 1013.8
20260505162835 63 0 3.0 10.0 0.00 0.00 0.00 74 1013.6
20260505162727 63 251 3.0 10.0 0.00 0.00 0.00 75 1013.5
20260505162203 62 0 3.0 9.0 0.00 0.00 0.00 75 1013.6
20260505161333 62 220 3.0 8.0 0.00 0.00 0.00 75 1013.5
20260505160828 62 230 3.0 7.0 0.00 0.00 0.00 75 1013.7
20260505160329 62 0 3.0 8.0 0.00 0.00 0.00 77 1013.7
20260505153325 61 275 2.0 5.0 0.00 0.00 0.00 77 1013.5
20260505152827 61 229 2.0 5.0 0.00 0.00 0.00 77 1013.4
20260505152326 61 247 2.0 5.0 0.00 0.00 0.00 76 1013.4
20260505151828 61 218 2.0 5.0 0.00 0.00 0.00 77 1013.2
20260505151326 60 214 2.0 5.0 0.00 0.00 0.00 77 1013.3
20260505150825 60 199 2.0 5.0 0.00 0.00 0.00 78 1013.3
20260505150327 60 234 2.0 4.0 0.00 0.00 0.00 79 1013.3
20260505124821 57 232 1.0 4.0 0.00 0.00 0.00 88 1012.9
20260505124320 57 229 2.0 4.0 0.00 0.00 0.00 88 1013.0
20260505123824 57 250 2.0 4.0 0.00 0.00 0.00 88 1013.0
20260505123319 57 282 2.0 7.0 0.00 0.00 0.00 88 1012.9
20260505122817 57 286 2.0 7.0 0.00 0.00 0.00 88 1013.0
20260505122317 57 285 2.0 6.0 0.00 0.00 0.00 88 1013.0
20260505122152 57 258 2.0 6.0 0.00 0.00 0.00 88 1012.9
20260505121319 57 273 2.0 4.0 0.00 0.00 0.00 87 1012.8
20260505120817 57 263 1.0 4.0 0.00 0.00 0.00 87 1012.8
20260505120317 57 264 2.0 5.0 0.00 0.00 0.00 87 1012.8
20260505115822 57 243 2.0 7.0 0.00 0.00 0.00 87 1012.8
20260505115317 57 254 2.0 7.0 0.00 0.00 0.00 87 1012.9
20260505114819 57 252 2.0 6.0 0.00 0.00 0.00 87 1012.9
20260505114319 57 266 2.0 8.0 0.00 0.00 0.00 87 1012.9
20260505113826 58 252 2.0 8.0 0.00 0.00 0.00 87 1012.9
20260505113325 58 267 2.0 7.0 0.00 0.00 0.00 86 1013.1
20260505112823 58 267 2.0 4.0 0.00 0.00 0.00 86 1012.9
20260505112605 58 254 2.0 4.0 0.00 0.00 0.00 85 1012.9
20260505111813 58 251 2.0 7.0 0.00 0.00 0.00 85 1012.9
20260505111316 58 281 3.0 7.0 0.00 0.00 0.00 85 1012.9
20260505111140 58 259 3.0 7.0 0.00 0.00 0.00 85 1013.0
20260505110647 58 252 3.0 7.0 0.00 0.00 0.00 85 1013.0
20260505101804 58 249 2.0 7.0 0.00 0.00 0.00 80 1013.1
20260505101302 58 257 1.0 4.0 0.00 0.00 0.00 80 1013.1
20260505100805 58 259 1.0 3.0 0.00 0.00 0.00 80 1013.1
20260505100303 58 286 2.0 5.0 0.00 0.00 0.00 81 1013.1
20260505100131 58 279 2.0 7.0 0.00 0.00 0.00 82 1013.1
20260505095304 59 264 2.0 8.0 0.00 0.00 0.00 82 1013.2
20260505094804 59 0 3.0 8.0 0.00 0.00 0.00 83 1013.2
20260505094305 59 256 3.0 8.0 0.00 0.00 0.00 83 1013.2
20260505093803 59 286 2.0 6.0 0.00 0.00 0.00 82 1013.4
20260505093305 59 276 1.0 4.0 0.00 0.00 0.00 82 1013.3
20260505092803 59 269 1.0 4.0 0.00 0.00 0.00 81 1013.4
20260505092305 59 324 2.0 4.0 0.00 0.00 0.00 81 1013.5
20260505092109 59 289 2.0 5.0 0.00 0.00 0.00 82 1013.5
20260505091304 59 310 2.0 5.0 0.00 0.00 0.00 83 1013.6
20260505090804 59 279 2.0 4.0 0.00 0.00 0.00 83 1013.6
20260505090621 59 294 2.0 4.0 0.00 0.00 0.00 84 1013.6
20260505085803 59 309 1.0 3.0 0.00 0.00 0.00 84 1013.6
20260505085304 59 303 1.0 3.0 0.00 0.00 0.00 85 1013.7
20260505084805 59 286 1.0 3.0 0.00 0.00 0.00 85 1013.7
20260505084302 59 286 0.0 3.0 0.00 0.00 0.00 86 1013.7
20260505083806 59 286 0.0 0.0 0.00 0.00 0.00 86 1013.9
20260505083301 59 286 0.0 0.0 0.00 0.00 0.00 87 1013.8
20260505083112 59 286 0.0 0.0 0.00 0.00 0.00 87 1013.7
20260505082304 59 286 0.0 0.0 0.00 0.00 0.00 87 1013.8
20260505081803 59 286 0.0 2.0 0.00 0.00 0.00 87 1013.9
20260505081500 59 286 1.0 4.0 0.00 0.00 0.00 87 1014.0
20260505081413 59 286 1.0 4.0 0.00 0.00 0.00 87 1013.9
20260505080258 59 287 2.0 4.0 0.00 0.00 0.00 87 1013.9
20260505080250 59 279 1.0 4.0 0.00 0.00 0.00 87 1014.0
20260505075257 59 280 1.0 3.0 0.00 0.00 0.00 87 1014.0
20260505074756 59 280 1.0 4.0 0.00 0.00 0.00 87 1014.1
20260505074626 59 304 1.0 4.0 0.00 0.00 0.00 87 1014.1
20260505073751 59 291 1.0 3.0 0.00 0.00 0.00 87 1014.2
20260505073254 59 291 2.0 4.0 0.00 0.00 0.00 87 1014.3
20260505072749 59 289 2.0 4.0 0.00 0.00 0.00 87 1014.3
20260505072245 59 302 1.0 4.0 0.00 0.00 0.00 87 1014.3
20260505071750 59 265 1.0 4.0 0.00 0.00 0.00 87 1014.3
20260505071242 59 279 2.0 5.0 0.00 0.00 0.00 87 1014.2
20260505070747 59 254 2.0 5.0 0.00 0.00 0.00 87 1014.3
20260505070244 59 282 2.0 7.0 0.00 0.00 0.00 87 1014.3
20260505065752 59 258 2.0 7.0 0.00 0.00 0.00 87 1014.2
20260505065244 59 303 2.0 8.0 0.00 0.00 0.00 87 1014.2
20260505064743 59 284 2.0 8.0 0.00 0.00 0.00 87 1014.2
20260505064243 59 256 1.0 3.0 0.00 0.00 0.00 87 1014.3
20260505063753 59 247 1.0 3.0 0.00 0.00 0.00 87 1014.2
20260505063242 59 0 2.0 3.0 0.00 0.00 0.00 87 1014.2
20260505062754 59 288 2.0 4.0 0.00 0.00 0.00 87 1014.2
20260505062240 59 286 1.0 4.0 0.00 0.00 0.00 87 1014.2
20260505061742 59 273 2.0 5.0 0.00 0.00 0.00 87 1014.2
20260505061655 59 263 2.0 5.0 0.00 0.00 0.00 87 1014.2
20260505060745 59 250 2.0 4.0 0.00 0.00 0.00 87 1014.2
20260505060440 59 236 2.0 4.0 0.00 0.00 0.00 87 1014.3
20260505060356 59 259 2.0 4.0 0.00 0.00 0.00 87 1014.2
20260505055232 59 278 2.0 5.0 0.00 0.00 0.00 87 1014.3
20260505054739 59 261 2.0 5.0 0.00 0.00 0.00 87 1014.4
20260505054233 59 271 1.0 4.0 0.00 0.00 0.00 87 1014.4
20260505053734 59 294 1.0 3.0 0.00 0.00 0.00 87 1014.4
20260505053623 59 0 1.0 3.0 0.00 0.00 0.00 86 1014.4
20260505052730 59 270 2.0 4.0 0.00 0.00 0.00 86 1014.4
20260505052612 59 270 2.0 5.0 0.00 0.00 0.00 86 1014.5
20260505051743 59 273 2.0 7.0 0.00 0.00 0.00 85 1014.5
20260505051236 59 0 2.0 4.0 0.00 0.00 0.00 85 1014.6
20260505051232 59 273 2.0 7.0 0.00 0.00 0.00 85 1014.5
20260505051227 60 283 2.0 4.0 0.00 0.00 0.00 85 1014.6
20260505050826 59 271 2.0 4.0 0.00 0.00 0.00 85 1014.5
20260505041727 60 251 3.0 7.0 0.00 0.00 0.00 82 1014.7
20260505041226 60 236 2.0 9.0 0.00 0.00 0.00 80 1014.6
20260505040726 60 241 3.0 9.0 0.00 0.00 0.00 80 1014.7
20260505040224 60 248 3.0 8.0 0.00 0.00 0.00 80 1014.6
20260505035724 60 175 2.0 8.0 0.00 0.00 0.00 80 1014.5
20260505035225 60 280 2.0 6.0 0.00 0.00 0.00 80 1014.6
20260505034722 60 243 2.0 5.0 0.00 0.00 0.00 80 1014.6
20260505034224 60 213 2.0 6.0 0.00 0.00 0.00 81 1014.5
20260505033721 60 272 3.0 6.0 0.00 0.00 0.00 83 1014.5
20260505033538 60 0 3.0 7.0 0.00 0.00 0.00 84 1014.5
20260505032722 60 233 3.0 8.0 0.00 0.00 0.00 85 1014.4
20260505032223 60 230 3.0 8.0 0.00 0.00 0.00 85 1014.3
20260505031717 60 0 3.0 8.0 0.00 0.00 0.00 85 1014.3
20260505031213 60 248 4.0 11.0 0.00 0.00 0.00 84 1014.2
20260505030713 60 266 4.0 11.0 0.00 0.00 0.00 84 1014.1
20260505030213 60 253 4.0 10.0 0.00 0.00 0.00 85 1014.1
20260505025714 60 229 4.0 10.0 0.00 0.00 0.00 85 1014.0
20260505025219 60 214 4.0 10.0 0.00 0.00 0.00 85 1014.0
20260505024714 60 171 5.0 10.0 0.00 0.00 0.00 84 1013.9
20260505024630 60 212 5.0 10.0 0.00 0.00 0.00 84 1013.9
20260505023716 61 225 5.0 14.0 0.00 0.00 0.00 84 1014.0
20260505023218 61 0 5.0 14.0 0.00 0.00 0.00 84 1014.0
20260505022714 61 264 5.0 12.0 0.00 0.00 0.00 83 1014.0
20260505022215 61 0 5.0 13.0 0.00 0.00 0.00 83 1014.1
20260505021713 61 221 6.0 13.0 0.00 0.00 0.00 82 1014.1
20260505021214 61 0 6.0 11.0 0.00 0.00 0.00 83 1014.1
20260505020712 62 0 5.0 12.0 0.00 0.00 0.00 82 1014.1
20260505020204 62 163 5.0 12.0 0.00 0.00 0.00 80 1014.2
20260505015703 62 250 5.0 12.0 0.00 0.00 0.00 79 1014.2
20260505015203 62 0 5.0 11.0 0.00 0.00 0.00 78 1014.2
20260505014703 62 216 4.0 11.0 0.00 0.00 0.00 79 1014.1
20260505014205 62 0 4.0 8.0 0.00 0.00 0.00 78 1014.2
20260505014016 62 0 4.0 10.0 0.00 0.00 0.00 79 1014.2
20260505013203 62 215 5.0 10.0 0.00 0.00 0.00 78 1014.2
20260505012704 62 288 5.0 10.0 0.00 0.00 0.00 79 1014.2
20260505012206 62 211 5.0 13.0 0.00 0.00 0.00 79 1014.3
20260505011703 62 267 5.0 13.0 0.00 0.00 0.00 79 1014.3
20260505011203 63 0 5.0 11.0 0.00 0.00 0.00 77 1014.4
20260505010703 63 272 5.0 10.0 0.00 0.00 0.00 74 1014.4
20260505010204 64 0 5.0 10.0 0.00 0.00 0.00 75 1014.4
20260505010121 64 271 4.0 10.0 0.00 0.00 0.00 74 1014.4
20260505005203 64 218 4.0 10.0 0.00 0.00 0.00 76 1014.4
20260505004701 64 241 4.0 9.0 0.00 0.00 0.00 75 1014.4
20260505004159 64 237 5.0 10.0 0.00 0.00 0.00 75 1014.3
20260505004048 64 263 5.0 10.0 0.00 0.00 0.00 76 1014.4
20260505003202 64 259 4.0 10.0 0.00 0.00 0.00 76 1014.4
20260505002934 63 229 5.0 11.0 0.00 0.00 0.00 77 1014.4
20260505002827 64 234 5.0 11.0 0.00 0.00 0.00 76 1014.4
20260505001701 63 205 5.0 12.0 0.00 0.00 0.00 78 1014.4
20260505001201 63 200 5.0 12.0 0.00 0.00 0.00 77 1014.4
20260505000702 64 250 6.0 13.0 0.00 0.00 0.00 77 1014.5
20260505000158 64 338 6.0 13.0 0.00 0.00 0.00 76 1014.5
20260504235701 64 254 6.0 13.0 0.00 0.00 0.00 77 1014.5
20260504235151 64 235 6.0 12.0 0.00 0.00 0.00 76 1014.3
20260504235141 65 0 6.0 12.0 0.00 0.00 0.00 75 1014.3
20260504234151 65 0 7.0 13.0 0.00 0.00 0.00 73 1014.3
20260504233652 65 294 6.0 13.0 0.00 0.00 0.00 72 1014.3
20260504233533 66 0 5.0 15.0 0.00 0.00 0.00 76 1014.2
20260504232655 65 205 6.0 15.0 0.00 0.00 0.00 74 1014.1
20260504232151 66 277 6.0 13.0 0.00 0.00 0.00 72 1014.1
20260504231652 66 227 7.0 14.0 0.00 0.00 0.00 72 1014.1
20260504231151 65 0 7.0 15.0 0.00 0.00 0.00 70 1014.1